This demonstration page uses our WeatherBlox Daily Observations layout. Learn more.

Left ArrowRight Arrow

Hourly Observations for September 12, 2019

Temp ( °F °C ) Dew Point ( °F °C ) Humidity (%) Winds ( mph kmh ) Pressure ( in mb ) Visibility ( mi km ) Precip ( " mm )
12:53 am 00:53 Clear 75 23.9 64 17.8 69 69 S 12 19 29.79 1009 10 16 0.00 0.00
1:53 am 01:53 Partly Cloudy 75 23.9 65 18.3 71 71 S 12 19 29.79 1009 10 16 0.00 0.00
2:39 am 02:39 Windy with Storms Likely 73 22.8 66 18.9 79 79 WNW 21 33 29.84 1010 7 11 0.01 0.25
2:48 am 02:48 Cloudy with Strong Thunderstorms 70 21 66 19 88 88 NW 21 33 29.83 1010 2 3 0.14 3.56
2:53 am 02:53 Cloudy with Strong Thunderstorms 69 20.6 66 18.9 90 90 NW 16 26 29.86 1011 2 3 0.17 4.32
2:56 am 02:56 Cloudy with Strong Thunderstorms 69 20.6 66 18.9 90 90 WNW 16 26 29.85 1011 2 3 0.06 1.52
3:03 am 03:03 Cloudy with Strong Thunderstorms 68 20 66 19 94 94 W 7 11 29.87 1011 1 1 0.00 0.00
3:18 am 03:18 Cloudy with Thunderstorms 66 18.9 63 17.2 90 90 VRB 5 7 29.84 1011 2 3 0.53 13.46
3:21 am 03:21 Cloudy with Thunderstorms 66 18.9 63 17.2 90 90 Calm 29.83 1010 3 5 0.53 13.46
3:33 am 03:33 Cloudy with Nearby Thunderstorms 66 18.9 63 17.2 90 90 Calm 29.83 1010 10 16 0.54 13.72
3:51 am 03:51 Mostly Cloudy 68 20 64 18 88 88 VRB 3 6 29.82 1010 10 16 0.54 13.72
3:53 am 03:53 Mostly Cloudy 68 20 66 18.9 93 93 Calm 29.83 1010 10 16 0.54 13.72
4:02 am 04:02 Mostly Cloudy 67 19.4 64 17.8 91 91 Calm 29.83 1010 10 16 0.00 0.00
4:25 am 04:25 Cloudy with Thunderstorms 68 20 65 18.3 90 90 SSE 3 6 29.84 1010 10 16 0.00 0.00
4:51 am 04:51 Partly Cloudy 66 19 64 18 94 94 SSE 3 6 29.83 1010 10 16 0.03 0.76
4:53 am 04:53 Mostly Cloudy 67 19.4 65 18.3 93 93 Calm 29.82 1010 10 16 0.03 0.76
5:13 am 05:13 Mostly Cloudy with Light Rain 67 19.4 64 17.8 91 91 WSW 6 9 29.85 1011 10 16 0.01 0.25
5:20 am 05:20 Mostly Cloudy 67 19.4 64 17.8 91 91 W 6 9 29.85 1011 10 16 0.01 0.25
5:34 am 05:34 Partly Cloudy with Nearby Thunderstorms 66 19 64 18 94 94 NW 9 15 29.83 1010 10 16 0.00 0.00
5:46 am 05:46 Mostly Cloudy with Nearby Thunderstorms 67 19.4 65 18.3 93 93 WNW 7 11 29.83 1010 10 16 0.01 0.25
5:53 am 05:53 Mostly Cloudy 67 19.4 65 18.3 93 93 WNW 7 11 29.83 1010 10 16 0.01 0.25
6:05 am 06:05 Partly Cloudy 66 19 64 18 94 94 NNW 5 7 29.84 1011 10 16 0.00 0.00
6:53 am 06:53 Clear 66 18.9 63 17.2 90 90 NW 3 6 29.85 1011 10 16 0.00 0.00
7:06 am 07:06 Mostly Clear 66 18.9 63 17.2 90 90 WNW 8 13 29.87 1012 10 16 0.00 0.00
7:53 am 07:53 Sunny 65 18.3 61 16.1 87 87 WNW 10 17 29.90 1013 10 16 0.00 0.00
8:53 am 08:53 Sunny 64 17.8 60 15.6 87 87 WNW 13 20 29.93 1014 10 16 0.00 0.00
9:53 am 09:53 Sunny 68 20 60 15.6 76 76 WNW 16 26 29.94 1014 10 16 0.00 0.00
10:53 am 10:53 Sunny 70 21.1 56 13.3 61 61 WNW 18 30 29.96 1015 10 16 0.00 0.00
11:53 am 11:53 Sunny 70 21.1 52 11.1 53 53 NW 17 28 29.97 1015 10 16 0.00 0.00
12:53 pm 12:53 Mostly Sunny 71 21.7 52 11.1 51 51 WNW 17 28 29.98 1015 10 16 0.00 0.00
1:53 pm 13:53 Sunny 75 23.9 51 10.6 43 43 WNW 20 31 29.98 1015 10 16 0.00 0.00
2:53 pm 14:53 Sunny 77 25 50 10 39 39 WNW 18 30 29.98 1015 10 16 0.00 0.00
3:53 pm 15:53 Sunny 78 25.6 48 8.9 35 35 WNW 23 37 29.98 1015 10 16 0.00 0.00
4:53 pm 16:53 Sunny 78 25.6 50 10 37 37 W 16 26 29.99 1016 10 16 0.00 0.00
5:53 pm 17:53 Sunny 77 25 50 10 39 39 W 12 19 29.99 1016 10 16 0.00 0.00
6:53 pm 18:53 Sunny 75 23.9 51 10.6 43 43 W 12 19 30.01 1016 10 16 0.00 0.00
7:53 pm 19:53 Clear 70 21.1 52 11.1 53 53 WNW 7 11 30.04 1017 10 16 0.00 0.00
8:53 pm 20:53 Clear 66 18.9 50 10 56 56 NW 6 9 30.09 1019 10 16 0.00 0.00
9:53 pm 21:53 Clear 64 17.8 50 10 60 60 W 6 9 30.12 1020 10 16 0.00 0.00
10:53 pm 22:53 Clear 62 16.7 49 9.4 62 62 WNW 8 13 30.15 1021 10 16 0.00 0.00
11:53 pm 23:53 Clear 60 15.6 49 9.4 67 67 NW 10 17 30.16 1021 10 16 0.00 0.00

Powered by AerisWeather